Ardmore, OK

11:38 PM CST on December 10, 2017 (GMT -0600)
Ardmore Municipal

Weather History for KADM - January, 2013

Change the Weather History Date:

Tuesday, January 15, 2013

  Actual Average Record
Temperature  
Mean Temperature 30 °F -  
Max Temperature 37 °F 50 °F 66 °F (2000)
Min Temperature 24 °F 32 °F 19 °F (2009)
Degree Days  
Heating Degree Days 34    
Moisture  
Dew Point 21 °F    
Average Humidity 77    
Maximum Humidity 80    
Minimum Humidity 56    
Precipitation  
Precipitation 0.00 in - - ()
Sea Level Pressure  
Sea Level Pressure 30.25 in    
Wind  
Wind Speed 7 mph (North)    
Max Wind Speed 13 mph    
Max Gust Speed -    
Visibility 10 miles    
Events      
Averages and records for this station are not official NWS values.
T = Trace of Precipitation, MM = Missing Value Source: NWS Daily Summary

Daily Weather History Graph

Daily Weather History Graph

Search for Another Location

Airport or City:

Trip Planner

Search our weather history database for the weather conditions in past years. The results will help you decide how hot, cold, wet, or windy it might be!

Date:

Astronomy

Jan. 15, 2013 Rise Set
Actual Time 7:33 AM CST 5:41 PM CST
Civil Twilight 7:06 AM CST 6:08 PM CST
Nautical Twilight 6:35 AM CST 6:39 PM CST
Astronomical Twilight 6:05 AM CST 7:09 PM CST
Moon 9:53 AM CST (1/15) 10:17 PM CST (1/15)
Length of Visible Light 11h 02m
Length of Day
10h 07m
Waxing Crescent, 19% of the Moon is Illuminated
Jan 15
Waxing Crescent
Jan 18
First Quarter
Jan 26
Full
Feb 3
Last Quarter
Feb 10
New

Hourly Weather History & Observations

Time (CST) Temp. Windchill Dew Point Humidity Pressure Visibility Wind Dir Wind Speed Gust Speed Precip Events Conditions
12:15 AM 28.4 °F 20.4 °F 21.2 °F 74% 30.27 in 10.0 mi NNE 8.1 mph - N/A   Clear
12:35 AM 28.4 °F 22.2 °F 21.2 °F 74% 30.27 in 10.0 mi North 5.8 mph - N/A   Clear
12:55 AM 28.4 °F 22.2 °F 21.2 °F 74% 30.27 in 10.0 mi NNE 5.8 mph - N/A   Clear
1:15 AM 28.4 °F 20.4 °F 21.2 °F 74% 30.27 in 10.0 mi NNE 8.1 mph - N/A   Clear
1:35 AM 28.4 °F 19.1 °F 21.2 °F 74% 30.25 in 10.0 mi North 10.4 mph - N/A   Clear
2:15 AM 28.4 °F 19.1 °F 21.2 °F 74% 30.24 in 10.0 mi NNE 10.4 mph - N/A   Clear
2:35 AM 26.6 °F 16.8 °F 21.2 °F 80% 30.25 in 10.0 mi North 10.4 mph - N/A   Clear
2:55 AM 26.6 °F 15.7 °F 21.2 °F 80% 30.27 in 10.0 mi North 12.7 mph - N/A   Clear
3:15 AM 26.6 °F 18.2 °F 21.2 °F 80% 30.27 in 10.0 mi North 8.1 mph - N/A   Clear
3:35 AM 26.6 °F - 21.2 °F 80% 30.27 in 10.0 mi Calm Calm - N/A   Clear
3:55 AM 26.6 °F - 21.2 °F 80% 30.27 in 10.0 mi Calm Calm - N/A   Scattered Clouds
4:15 AM 26.6 °F 18.2 °F 21.2 °F 80% 30.26 in 10.0 mi North 8.1 mph - N/A   Scattered Clouds
4:55 AM 26.6 °F 18.2 °F 21.2 °F 80% 30.23 in 10.0 mi North 8.1 mph - N/A   Mostly Cloudy
5:15 AM 26.6 °F 16.8 °F 21.2 °F 80% 30.21 in 10.0 mi North 10.4 mph - N/A   Scattered Clouds
5:35 AM 28.4 °F 20.4 °F 21.2 °F 74% 30.22 in 10.0 mi North 8.1 mph - N/A   Scattered Clouds
1:55 PM 37.4 °F 30.8 °F 23.0 °F 56% 30.19 in 10.0 mi NNW 9.2 mph - N/A   Scattered Clouds
10:35 PM 24.8 °F - 19.4 °F 80% 30.24 in 10.0 mi Calm Calm - N/A   Clear
10:55 PM 26.6 °F 19.1 °F 21.2 °F 80% 30.23 in 10.0 mi NNW 6.9 mph - N/A   Clear
11:15 PM 26.6 °F 21.2 °F 21.2 °F 80% 30.23 in 10.0 mi North 4.6 mph - N/A   Clear
11:35 PM 26.6 °F 18.2 °F 21.2 °F 80% 30.22 in 10.0 mi NNW 8.1 mph - N/A   Clear